Regional Weather Roundup
Issued by NWS Little Rock, AR

Home | Current Version | Previous Version | Graphics & Text | Print | Product List | Glossary On
Versions: 1 2 3 4 5 6 7 8 9 10 11 12 13 14 15 16 17 18 19 20 21 22 23 24 25 26 27
000
ASUS44 KLZK 010205
RWRLZK

WEATHER ROUNDUP FOR ARKANSAS
NATIONAL WEATHER SERVICE LITTLE ROCK AR
900 PM CDT SAT APR 30 2016

NOTE: "FAIR" INDICATES FEW OR NO CLOUDS BELOW 12,000 FEET WITH NO
SIGNIFICANT WEATHER AND/OR OBSTRUCTIONS TO VISIBILITY.

ARZ001-003-010-029-010300-
NORTHWEST ARKANSAS

CITY           SKY/WX    TMP DP  RH WIND       PRES   REMARKS
FAYETTEVILLE   CLEAR     60  59  96 W6        29.84R
FORT SMITH     CLOUDY    68  59  73 W7        29.81R
HARRISON       PTCLDY    64  58  80 NW5       29.82R
BENTONVILLE    CLEAR     61  52  72 NW6       29.85R
ROGERS         CLEAR     59  55  87 W5        29.85R
SILOAM SPGS    CLEAR     57  48  72 N3        29.86R
HIGHFILL       CLEAR     60  55  83 W7        29.84R
SPRINGDALE     CLEAR     63  59  88 W6        29.86R
$$

ARZ004-005-016-010300-
NORTH CENTRAL ARKANSAS

CITY           SKY/WX    TMP DP  RH WIND       PRES   REMARKS
BATESVILLE     MOCLDY    70  61  73 SE5       29.79R
FLIPPIN        CLOUDY   N/A N/A N/A S8        29.81R THUNDER
MTN HOME       CLOUDY    59  58  96 SW14G22   29.81R THUNDER
$$

ARZ040-041-010300-
WEST CENTRAL ARKANSAS

CITY           SKY/WX    TMP DP  RH WIND       PRES   REMARKS
MENA           CLEAR     70  66  88 W5        29.82R
MOUNT IDA      PTCLDY    70  64  81 W3        29.77R
$$

ARZ009-017-025-026-028-010300-
NORTHEAST ARKANSAS

CITY           SKY/WX    TMP DP  RH WIND       PRES   REMARKS
CORNING          N/A     70  64  83 CALM      29.81R
JONESBORO      PTCLDY    71  63  75 SE6       29.80S
NEWPORT        PTCLDY    71  64  78 SE15      29.79S
WALNUT RIDGE   PTCLDY    70  61  73 S12       29.79R
BLYTHEVILLE    PTCLDY    67  63  87 SE7       29.82S
$$

ARZ022-023-033-042-044-010300-
CENTRAL ARKANSAS

CITY           SKY/WX    TMP DP  RH WIND       PRES   REMARKS
LITTLE ROCK    CLOUDY    73  65  75 E5        29.79R
N LITTLE ROCK    N/A     71  65  82 SE3       29.78R
JACKSONVILLE   PTCLDY    71  67  85 E5        29.78R
SEARCY         CLOUDY    69  65  86 SE6       29.80R
HOT SPRINGS    CLEAR     71  63  75 CALM      29.78R
RUSSELLVILLE   MOCLDY    65  63  93 CALM      29.78R
$$

ARZ036-010300-
EAST ARKANSAS

CITY           SKY/WX    TMP DP  RH WIND       PRES   REMARKS
WEST MEMPHIS   MOCLDY    68  67  96 S3        29.81R
$$

ARZ050-053-066-070-073-010300-
SOUTHWEST ARKANSAS

CITY           SKY/WX    TMP DP  RH WIND       PRES   REMARKS
ARKADELPHIA    FAIR      72  72 100 CALM      29.79R
CAMDEN         PTCLDY    70  64  83 CALM      29.77R
TEXARKANA      MOCLDY    72  69  90 NE3       29.77R
EL DORADO      CLEAR     71  69  93 SE5       29.78R
DE QUEEN       MOCLDY    70  65  84 W5        29.78R
$$

ARZ056-057-069-010300-
SOUTHEAST ARKANSAS

CITY           SKY/WX    TMP DP  RH WIND       PRES   REMARKS
PINE BLUFF     CLEAR     71  66  84 SE6       29.79R
STUTTGART      CLEAR     72  63  73 SE5       29.81R
MONTICELLO     CLEAR     73  68  84 SE5       29.79R

$$






USA.gov is the U.S. government's official web portal to all federal, state and local government web resources and services.